Location: Oberwangen
(47.4286°N, 8.9679°E)
Time: 08:32:28
(UTC+00:00)

Cosmos 1447 Rocket - Pass Details

Date: 24 October 2021
Orbit: 953 x 996 km, 82.9° (Epoch: 27 November)

Event Time Altitude Azimuth Distance (km) Brightness Sun altitude
Rises 18:49:22 0° 346° (NNW) 3,645 7.8 -25.8°
Reaches altitude 10° 18:51:57 10° 341° (NNW) 2,693 7.1 -26.3°
Maximum altitude 18:57:48 48° 269° (W) 1,230 5.3 -27.2°
Drops below altitude 10° 19:03:37 10° 197° (SSW) 2,681 6.8 -28.2°
Sets 19:06:11 0° 192° (SSW) 3,626 7.5 -28.6°
